Weather Roundup
Issued by NWS

Home | Current Version | Previous Version | Text Only | Print | Product List | Glossary On
Versions: 1 2 3 4 5 6 7 8 9 10 11 12 13 14 15 16 17 18 19 20 21 22 23 24 25 26 27 28 29 30 31 32 33 34 35 36 37 38 39 40 41 42 43 44 45 46 47 48 49 50
343
NZUS93 KARX 071159
HRRWXR

CURRENT HOURLY OBSERVATIONS ACROSS
MUCH OF THE UPPER MISSISSIPPI VALLEY
NATIONAL WEATHER SERVICE LA CROSSE WI
600 AM CST SUN FEB 07 2016


...SOUTHEAST MINNESOTA...


CITY           SKY/WX    TMP DP  RH WIND       PRES   REMARKS
ROCHESTER      CLEAR     30  25  81 W13       29.68F WCI  20
ROCHESTER/MAYO FAIR      34  29  82 W14       29.68S WCI  25
WINONA         PTCLDY    34  28  80 W7        29.69F WCI  28
AUSTIN         CLEAR     34  27  75 W9        29.70F WCI  26
ALBERT LEA     CLEAR     34  27  75 W15       29.71F WCI  24
DODGE CENTER   PTCLDY    27  25  93 W13       29.68S WCI  16
PRESTON        CLEAR     31  26  81 W14       29.69F WCI  21
OWATONNA       CLEAR     30  25  80 SW13      29.69S WCI  20
FARIBAULT      CLEAR     36  27  69 SW12      29.68S WCI  27
$$

...ELSEWHERE IN MINNESOTA...


CITY           SKY/WX    TMP DP  RH WIND       PRES   REMARKS
MINNEAPOLIS    MOCLDY    34  28  79 SW14      29.63F WCI  25
INTNL FALLS    CLOUDY    34  32  92 S5        29.37S WCI  30
DULUTH         FLURRIES  32  29  88 SW12      29.45F WCI  23
RED WING       CLEAR     30  27  86 W7        29.65S WCI  23
REDWOOD FALLS  PTCLDY    36  26  67 W26G32    29.70F WCI  24
MANKATO        MOCLDY    37  27  65 W20G28    29.70S WCI  27
WORTHINGTON    CLEAR     34  23  64 W22       29.80R WCI  22
FAIRMONT       CLEAR     36  25  64 W23       29.74S WCI  24
$$

...SOUTHWEST WISCONSIN...


CITY           SKY/WX    TMP DP  RH WIND       PRES   REMARKS
LA CROSSE      CLOUDY    34  27  75 S12       29.70F WCI  25
PRAIRIE DU CHI PTCLDY    37  28  69 SW5       29.76F WCI  34
BOSCOBEL       CLOUDY    38  31  76 SW6       29.75F WCI  33
LONE ROCK      NOT AVBL
PLATTEVILLE    CLOUDY    36  31  83 SW12      29.77F WCI  27
FORT MC COY    CLOUDY    35  30  81 SW5       29.69F WCI  31
VIROQUA        FAIR      34  30  85 SW10      29.70F WCI  26
WIS DELLS      CLOUDY    36  29  74 SW14      29.70S WCI  27
$$

...ELSEWHERE IN WISCONSIN...


CITY           SKY/WX    TMP DP  RH WIND       PRES   REMARKS
MILWAUKEE      CLOUDY    36  29  75 S9        29.80F WCI  29
MADISON        CLOUDY    37  29  72 SW12G21   29.75F WCI  29
GREEN BAY      CLOUDY    36  30  79 S10       29.71F WCI  28
EAU CLAIRE     NOT AVBL
BLACK RVR FLS  FAIR      34  29  81 SW3       29.67F
MEDFORD        LGT SNOW  30  29  98 S8        29.62F WCI  22
WAUSAU         CLOUDY    32  28  85 S6        29.62F WCI  26
WIS RAPIDS     PTCLDY    33  27  78 SW8       29.68F WCI  26
MARSHFIELD     CLOUDY    32  26  78 SW9       29.63F WCI  24
RICE LAKE      CLOUDY    32  28  86 S10       29.60F WCI  24
$$

...NORTHEAST IOWA...


CITY           SKY/WX    TMP DP  RH WIND       PRES   REMARKS
WATERLOO       PTCLDY    33  27  78 W10       29.79R WCI  25
DUBUQUE        CLOUDY    34  29  82 SW18      29.77F WCI  23
DECORAH        CLOUDY    34  30  86 W13       29.72S WCI  25
MASON CITY     CLEAR     32  26  78 W18       29.76S WCI  20
CHARLES CITY   CLEAR     32  30  93 W12       29.75F WCI  23
OELWEIN        CLOUDY    34  30  86 SW14      29.77S WCI  24
$$

...ELSEWHERE IN IOWA...


CITY           SKY/WX    TMP DP  RH WIND       PRES   REMARKS
DES MOINES     CLOUDY    36  27  69 W10       29.87R WCI  28
IOWA CITY      CLOUDY    37  29  72 W8        29.86R WCI  31
FORT DODGE     CLEAR     34  25  69 W8        29.83R WCI  27
MARSHALLTOWN   CLOUDY    34  28  79 W15       29.81S WCI  24
CEDAR RAPIDS   CLOUDY    36  30  79 SW10      29.81S WCI  28
$$

...NORTHERN ILLINOIS...


CITY           SKY/WX    TMP DP  RH WIND       PRES   REMARKS
CHICAGO-OHARE  MOCLDY    38  28  67 SW16      29.87F WCI  29
CHICAGO-MIDWAY CLOUDY    39  28  64 SW12      29.89F WCI  32
MOLINE         PTCLDY    38  28  67 SW14      29.83F WCI  30
ROCKFORD       CLOUDY    37  29  72 SW14      29.85F WCI  28
PEORIA         CLOUDY    36  28  73 S10       29.92F WCI  28
$$

NOTE: "FAIR" INDICATES FEW OR NO CLOUDS BELOW 12,000 FEET WITH NO
SIGNIFICANT WEATHER AND/OR OBSTRUCTIONS TO VISIBILITY. WIND
SPEEDS ARE IN MILES-PER-HOUR.




USA.gov is the U.S. government's official web portal to all federal, state and local government web resources and services.